Chongqing, China

10:07 AM CST on November 12, 2019 (GMT +0800)
Jiangbei

Weather History for ZUCK - September, 2019

Change the Weather History Date:

Tuesday, September 17, 2019

  Actual Average (WUND) Record (WUND)
Temperature  
Mean Temperature 70 °F -  
Max Temperature 71 °F - - (-1)
Min Temperature 68 °F - - (-1)
Cooling Degree Days 4    
Growing Degree Days 20 (Base 50)    
Moisture  
Dew Point 66 °F    
Average Humidity 91    
Maximum Humidity 100    
Minimum Humidity 77    
Precipitation  
Precipitation 0.12 in - - ()
Sea Level Pressure  
Sea Level Pressure 29.99 in    
Wind  
Wind Speed 5 mph ()    
Max Wind Speed 9 mph    
Max Gust Speed -    
Visibility 5.2 miles    
Events Rain    
Averages and records for this station are not official NWS values.
T = Trace of Precipitation, MM = Missing Value Source: Averaged Metar Reports

Daily Weather History Graph

Daily Weather History Graph

Search for Another Location

Airport or City:

Astronomy

Sep. 17, 2019 Rise Set
Actual Time 6:38 AM CST 6:57 PM CST
Civil Twilight 6:14 AM CST 7:20 PM CST
Nautical Twilight 5:46 AM CST 7:48 PM CST
Astronomical Twilight 5:18 AM CST 8:17 PM CST
Moon 8:55 PM CST (9/17) 9:02 AM CST (9/17)
Length of Visible Light 13h 06m
Length of Day
12h 18m
Waning Gibbous, 92% of the Moon is Illuminated
Sep 17
Waning Gibbous
Sep 22
Last Quarter
Sep 29
New
Oct 6
First Quarter
Oct 14
Full

Hourly Weather History & Observations

Time (CST) Temp. Dew Point Humidity Pressure Visibility Wind Dir Wind Speed Gust Speed Precip Events Conditions
12:00 AM 69.8 °F 66.2 °F 88% 29.95 in - NNE 6.7 mph - N/A   Clear
1:00 AM 69.8 °F 66.2 °F 88% 29.92 in - North 8.9 mph - N/A   Clear
2:00 AM 71 °F 65 °F 77% 29.88 in 5 mi NW 4.5 mph - -  
2:00 AM 69.8 °F 66.2 °F 88% 29.92 in - North 8.9 mph - N/A   Clear
3:00 AM 69.8 °F 66.2 °F 88% 29.92 in - NNE 6.7 mph - N/A   Clear
4:00 AM 68.0 °F 66.2 °F 94% 29.92 in - North 6.7 mph - N/A   Clear
5:00 AM 71 °F 66 °F 78% 29.88 in - NW 4.5 mph - -   Mist
5:00 AM 68.0 °F 66.2 °F 94% 29.95 in - NE 4.5 mph - N/A   Clear
6:00 AM 69.8 °F 66.2 °F 88% 29.95 in 6.2 mi Variable 2.2 mph - N/A   Scattered Clouds
7:00 AM 69.8 °F 66.2 °F 88% 29.95 in 6.2 mi NNE 4.5 mph - N/A   Scattered Clouds
8:00 AM 71 °F 66 °F 80% 29.93 in - NNW 4.5 mph - -   Mist
8:00 AM 69.8 °F 66.2 °F 88% 29.98 in 6.2 mi NW 6.7 mph - N/A   Scattered Clouds
9:00 AM 68.0 °F 66.2 °F 94% 30.01 in 1.7 mi NNW 6.7 mph - N/A Rain Light Rain
10:00 AM 68.0 °F 66.2 °F 94% 30.04 in 1.6 mi NNW 6.7 mph - N/A Rain Light Rain
11:00 AM 69 °F 67 °F 89% 29.99 in 2 mi NNW 2.2 mph - - Rain Light Rain
11:00 AM 68.0 °F 68.0 °F 100% 30.04 in 3.7 mi North 4.5 mph - N/A Rain Light Rain
12:00 PM 69.8 °F 68.0 °F 94% 30.04 in 5.6 mi NW 6.7 mph - N/A   Overcast
1:00 PM 68.0 °F 68.0 °F 100% 30.04 in 6.2 mi NW 6.7 mph - N/A   Scattered Clouds
2:00 PM 69 °F 67 °F 92% 29.98 in 2 mi NNW 2.2 mph - - Rain Light Rain
2:00 PM 68.0 °F 66.2 °F 94% 30.01 in 5.0 mi NW 6.7 mph - N/A Rain Light Rain
3:00 PM 68.0 °F 66.2 °F 94% 30.01 in 3.7 mi WNW 6.7 mph - N/A Rain Light Rain
4:00 PM 68.0 °F 66.2 °F 94% 30.01 in 4.3 mi NW 8.9 mph - N/A Rain Light Rain
5:00 PM 69 °F 67 °F 90% 29.98 in 3 mi NNE 2.2 mph - - Rain Light Rain
5:00 PM 68.0 °F 66.2 °F 94% 30.01 in 5.0 mi NNW 6.7 mph - N/A Rain Light Rain
6:00 PM 68.0 °F 66.2 °F 94% 30.04 in 6.2 mi WNW 4.5 mph - N/A Rain Light Rain
7:00 PM 68.0 °F 66.2 °F 94% 30.04 in 6.2 mi WNW 4.5 mph - N/A Rain Light Rain
8:00 PM 69 °F 67 °F 89% 30.03 in 10 mi NNW 2.2 mph - -   Clear
8:00 PM 68.0 °F 66.2 °F 94% 30.06 in 6.2 mi West 4.5 mph - N/A   Overcast
9:00 PM 68.0 °F 68.0 °F 100% 30.09 in 6.2 mi West 4.5 mph - N/A   Overcast
10:00 PM 68.0 °F 66.2 °F 94% 30.09 in 6.2 mi WNW 4.5 mph - N/A   Overcast
11:00 PM 69 °F 65 °F 85% 30.07 in 11 mi NW 2.2 mph - -  
11:00 PM 68.0 °F 66.2 °F 94% 30.09 in 6.2 mi WNW 4.5 mph - N/A Rain Light Rain